Weather in Akhti

Russia / Republic of Dagestan     41°27′33″N   47°44′57″E
temp.,
°C
wind,
m/s
gust,
m/s
humid.,
%
clouds,
%
prec.,
mm/h
press.,
hPa
HPBL,
m
2 july, sat
sat200:00+11wnw22783 0.0 101417
03:00+10w22791 0.0 101218
06:00+13nnw11706 0.0 1011136
09:00+17e32638 0.0 1010851
12:00+15e447699 1.1 1010903
15:00+11e2498100 3.4 1012343
18:00+9e3499100 1.5 1014222
21:00+9nne1195100 1.9 1015120
3 july, sun
sun300:00+9s119498 0.1 101469
03:00+8e129271 0.1 1013114
06:00+9w018932 0.0 1013154
09:00+13se227450 0.5 1011606
12:00+12e438086 1.5 1013690
15:00+10ene338690 1.9 1014407
18:00+10ese118893 0.2 1015170
21:00+9wnw018785 0.4 101622
4 july, mon
mon400:00+9ese118495 0.0 101620
03:00+9nnw018993 0.3 101640
06:00+9n118897 0.4 101776
09:00+9ne2282100 1.1 1018286
12:00+11e227898 0.3 1018565
15:00+12e216876 0.5 1017795
18:00+13e216976 0.1 1017598
21:00+10sw117723 0.2 101916
5 july, tue
tue500:00+8wsw337918 0.0 101944
03:00+7w347915 0.0 101943
06:00+10w23720 0.0 1019120
09:00+15e22536 0.0 10171224
12:00+17e324980 0.1 10171778
15:00+15ene326071 0.1 1017909
18:00+13ene117499 0.0 1018101
21:00+9wsw12835 0.0 101916
6 july, wed
wed600:00+8wsw11849 0.0 102024
03:00+8w22810 0.0 102022
06:00+11wnw22710 0.0 1020112
09:00+16e326016 0.0 10181058
12:00+17ene435558 0.1 10181526
15:00+16e325825 0.2 10191072
18:00+14e326618 0.0 1020407
21:00+9wsw12830 0.0 102114